| time (UTC) | temp C | wind direction | speed KPH | gust KPH | rain 1hr cm | rain 24hr cm | rain mn cm | humidity % | barometer mb |
| 20260502152204 | 12 | 167 | 6.4 | 19.3 | 0.00 | 0.00 | 0.00 | 55 | 1015.4 |
| 20260502151705 | 12 | 242 | 8.0 | 16.1 | 0.00 | 0.00 | 0.00 | 55 | 1015.3 |
| 20260502151205 | 12 | 125 | 1.6 | 16.1 | 0.00 | 0.00 | 0.00 | 59 | 1014.9 |
| 20260502150705 | 12 | 214 | 0.0 | 0.0 | 0.00 | 0.00 | 0.00 | 58 | 1014.8 |
| 20260502130704 | 11 | 169 | 0.0 | 12.9 | 0.00 | 0.00 | 0.00 | 71 | 1014.4 |
| 20260502130206 | 11 | 173 | 0.0 | 0.0 | 0.00 | 0.00 | 0.00 | 72 | 1014.4 |
| 20260502123705 | 11 | 136 | 0.0 | 12.9 | 0.00 | 0.00 | 0.00 | 72 | 1014.3 |
| 20260502123204 | 11 | 184 | 0.0 | 0.0 | 0.00 | 0.00 | 0.00 | 74 | 1014.1 |
| 20260502122704 | 11 | 180 | 1.6 | 4.8 | 0.00 | 0.00 | 0.00 | 73 | 1014.0 |
| 20260502121704 | 11 | 150 | 1.6 | 19.3 | 0.00 | 0.00 | 0.00 | 75 | 1013.9 |
| 20260502121206 | 11 | 159 | 0.0 | 1.6 | 0.00 | 0.00 | 0.00 | 77 | 1013.9 |
| 20260502120705 | 11 | 159 | 0.0 | 0.0 | 0.00 | 0.00 | 0.00 | 76 | 1013.8 |
| 20260502120205 | 11 | 160 | 3.2 | 11.3 | 0.00 | 0.00 | 0.00 | 75 | 1013.9 |
| 20260502115204 | 11 | 120 | 1.6 | 4.8 | 0.00 | 0.00 | 0.00 | 77 | 1013.8 |
| 20260502114705 | 10 | 188 | 0.0 | 0.0 | 0.00 | 0.00 | 0.00 | 79 | 1013.8 |
| 20260502114205 | 10 | 187 | 0.0 | 0.0 | 0.00 | 0.00 | 0.00 | 79 | 1013.8 |
| 20260502113704 | 10 | 174 | 0.0 | 0.0 | 0.00 | 0.00 | 0.00 | 79 | 1013.9 |
| 20260502113205 | 10 | 167 | 0.0 | 0.0 | 0.00 | 0.00 | 0.00 | 82 | 1013.9 |
| 20260502112705 | 10 | 294 | 0.0 | 0.0 | 0.00 | 0.00 | 0.00 | 83 | 1013.9 |
| 20260502112204 | 10 | 294 | 0.0 | 0.0 | 0.00 | 0.00 | 0.00 | 84 | 1013.7 |
| 20260502111705 | 10 | 296 | 0.0 | 0.0 | 0.00 | 0.00 | 0.00 | 86 | 1013.8 |
| 20260502110704 | 10 | 298 | 0.0 | 0.0 | 0.00 | 0.00 | 0.00 | 86 | 1013.8 |
| 20260502110204 | 10 | 298 | 0.0 | 0.0 | 0.00 | 0.00 | 0.00 | 85 | 1013.9 |
| 20260502105704 | 10 | 298 | 0.0 | 0.0 | 0.00 | 0.00 | 0.00 | 85 | 1014.0 |
| 20260502105204 | 10 | 298 | 0.0 | 0.0 | 0.00 | 0.00 | 0.00 | 85 | 1014.0 |
| 20260502104704 | 10 | 298 | 0.0 | 0.0 | 0.00 | 0.00 | 0.00 | 85 | 1013.9 |
| 20260502103204 | 10 | 298 | 0.0 | 0.0 | 0.00 | 0.00 | 0.00 | 85 | 1013.8 |
| 20260502102706 | 10 | 298 | 0.0 | 0.0 | 0.00 | 0.00 | 0.00 | 85 | 1013.8 |
| 20260502101704 | 10 | 298 | 0.0 | 0.0 | 0.00 | 0.00 | 0.00 | 85 | 1013.7 |
| 20260502101204 | 10 | 298 | 0.0 | 0.0 | 0.00 | 0.00 | 0.00 | 85 | 1013.6 |
| 20260502100704 | 10 | 298 | 0.0 | 0.0 | 0.00 | 0.00 | 0.00 | 84 | 1013.5 |
| 20260502100204 | 10 | 298 | 0.0 | 0.0 | 0.00 | 0.00 | 0.00 | 84 | 1013.4 |
| 20260502091204 | 10 | 298 | 0.0 | 0.0 | 0.00 | 0.00 | 0.00 | 84 | 1013.1 |
| 20260502090704 | 10 | 298 | 0.0 | 0.0 | 0.00 | 0.00 | 0.00 | 84 | 1013.0 |
| 20260502090204 | 10 | 298 | 0.0 | 0.0 | 0.00 | 0.00 | 0.00 | 84 | 1013.0 |
| 20260502071203 | 11 | 299 | 0.0 | 0.0 | 0.00 | 0.00 | 0.00 | 80 | 1012.6 |
| 20260502070706 | 11 | 299 | 0.0 | 0.0 | 0.00 | 0.00 | 0.00 | 80 | 1012.6 |
| 20260502070204 | 11 | 299 | 0.0 | 0.0 | 0.00 | 0.00 | 0.00 | 79 | 1012.6 |
| 20260502065704 | 11 | 299 | 0.0 | 0.0 | 0.00 | 0.00 | 0.00 | 80 | 1012.6 |
| 20260502065204 | 11 | 299 | 0.0 | 0.0 | 0.00 | 0.00 | 0.00 | 80 | 1012.6 |
| 20260502064704 | 11 | 299 | 0.0 | 0.0 | 0.00 | 0.00 | 0.00 | 78 | 1012.6 |
| 20260502064204 | 11 | 299 | 0.0 | 0.0 | 0.00 | 0.00 | 0.00 | 78 | 1012.5 |
| 20260502063704 | 11 | 299 | 0.0 | 0.0 | 0.00 | 0.00 | 0.00 | 78 | 1012.7 |
| 20260502063204 | 11 | 299 | 0.0 | 0.0 | 0.00 | 0.00 | 0.00 | 78 | 1012.7 |
| 20260502062704 | 11 | 299 | 0.0 | 0.0 | 0.00 | 0.00 | 0.00 | 78 | 1012.8 |
| 20260502062205 | 12 | 299 | 0.0 | 0.0 | 0.00 | 0.00 | 0.00 | 78 | 1012.8 |
| 20260502060704 | 12 | 299 | 0.0 | 0.0 | 0.00 | 0.00 | 0.00 | 76 | 1012.9 |
| 20260502060204 | 12 | 299 | 0.0 | 0.0 | 0.00 | 0.00 | 0.00 | 75 | 1012.8 |
| 20260502055703 | 12 | 299 | 0.0 | 0.0 | 0.00 | 0.00 | 0.00 | 75 | 1012.8 |
| 20260502055204 | 12 | 300 | 0.0 | 0.0 | 0.00 | 0.00 | 0.00 | 75 | 1012.8 |
| 20260502054704 | 12 | 300 | 0.0 | 0.0 | 0.00 | 0.00 | 0.00 | 75 | 1012.9 |
| 20260502054203 | 12 | 300 | 0.0 | 0.0 | 0.00 | 0.00 | 0.00 | 74 | 1013.0 |
| 20260502053206 | 12 | 300 | 0.0 | 0.0 | 0.00 | 0.00 | 0.00 | 74 | 1013.0 |
| 20260502052704 | 12 | 300 | 0.0 | 0.0 | 0.00 | 0.00 | 0.00 | 74 | 1013.0 |
| 20260502052203 | 12 | 300 | 0.0 | 0.0 | 0.00 | 0.00 | 0.00 | 74 | 1012.9 |
| 20260502051705 | 12 | 299 | 0.0 | 0.0 | 0.00 | 0.00 | 0.00 | 74 | 1013.0 |
| 20260502051203 | 12 | 299 | 0.0 | 0.0 | 0.00 | 0.00 | 0.00 | 74 | 1013.1 |
| 20260502045704 | 12 | 299 | 0.0 | 0.0 | 0.00 | 0.00 | 0.00 | 73 | 1013.2 |
| 20260502045205 | 12 | 299 | 0.0 | 0.0 | 0.00 | 0.00 | 0.00 | 73 | 1013.3 |
| 20260502044203 | 12 | 299 | 0.0 | 0.0 | 0.00 | 0.00 | 0.00 | 72 | 1013.3 |
| 20260502043703 | 12 | 299 | 0.0 | 0.0 | 0.00 | 0.00 | 0.00 | 72 | 1013.5 |
| 20260502043204 | 12 | 299 | 0.0 | 0.0 | 0.00 | 0.00 | 0.00 | 72 | 1013.5 |
| 20260502042204 | 13 | 299 | 0.0 | 0.0 | 0.00 | 0.00 | 0.00 | 72 | 1013.5 |
| 20260502041704 | 13 | 299 | 0.0 | 0.0 | 0.00 | 0.00 | 0.00 | 71 | 1013.7 |
| 20260502041204 | 13 | 299 | 0.0 | 0.0 | 0.00 | 0.00 | 0.00 | 71 | 1013.6 |
| 20260502040204 | 13 | 299 | 0.0 | 0.0 | 0.00 | 0.00 | 0.00 | 70 | 1013.5 |
| 20260502035703 | 13 | 299 | 0.0 | 0.0 | 0.00 | 0.00 | 0.00 | 70 | 1013.5 |
| 20260502035203 | 13 | 299 | 0.0 | 0.0 | 0.00 | 0.00 | 0.00 | 70 | 1013.5 |
| 20260502034703 | 13 | 299 | 0.0 | 0.0 | 0.00 | 0.00 | 0.00 | 69 | 1013.5 |
| 20260502034204 | 13 | 299 | 0.0 | 0.0 | 0.00 | 0.00 | 0.00 | 69 | 1013.4 |
| 20260502033704 | 13 | 299 | 0.0 | 0.0 | 0.00 | 0.00 | 0.00 | 69 | 1013.4 |
| 20260502033203 | 13 | 299 | 0.0 | 0.0 | 0.00 | 0.00 | 0.00 | 69 | 1013.4 |
| 20260502032703 | 13 | 299 | 0.0 | 0.0 | 0.00 | 0.00 | 0.00 | 69 | 1013.3 |
| 20260502032203 | 13 | 298 | 0.0 | 0.0 | 0.00 | 0.00 | 0.00 | 68 | 1013.2 |
| 20260502031704 | 13 | 298 | 0.0 | 0.0 | 0.00 | 0.00 | 0.00 | 68 | 1013.1 |
| 20260502025706 | 14 | 298 | 0.0 | 0.0 | 0.00 | 0.00 | 0.00 | 67 | 1012.9 |
| 20260502025207 | 14 | 298 | 0.0 | 0.0 | 0.00 | 0.00 | 0.00 | 66 | 1012.9 |
| 20260502024707 | 14 | 298 | 0.0 | 0.0 | 0.00 | 0.00 | 0.00 | 65 | 1012.8 |
| 20260502023706 | 14 | 298 | 0.0 | 0.0 | 0.00 | 0.00 | 0.00 | 65 | 1013.0 |
| 20260502023207 | 14 | 298 | 0.0 | 0.0 | 0.00 | 0.00 | 0.00 | 65 | 1012.9 |
| 20260502022706 | 14 | 298 | 0.0 | 0.0 | 0.00 | 0.00 | 0.00 | 64 | 1013.0 |
| 20260502022205 | 14 | 298 | 0.0 | 0.0 | 0.00 | 0.00 | 0.00 | 64 | 1013.1 |
| 20260502021705 | 15 | 298 | 0.0 | 0.0 | 0.00 | 0.00 | 0.00 | 63 | 1013.1 |
| 20260502020707 | 15 | 298 | 0.0 | 0.0 | 0.00 | 0.00 | 0.00 | 62 | 1013.1 |
| 20260502020205 | 15 | 298 | 0.0 | 0.0 | 0.00 | 0.00 | 0.00 | 62 | 1013.1 |
| 20260502015705 | 15 | 298 | 0.0 | 0.0 | 0.00 | 0.00 | 0.00 | 61 | 1013.1 |
| 20260502014706 | 15 | 298 | 0.0 | 0.0 | 0.00 | 0.00 | 0.00 | 60 | 1013.1 |
| 20260502013707 | 15 | 298 | 0.0 | 0.0 | 0.00 | 0.00 | 0.00 | 59 | 1013.0 |
| 20260502013205 | 15 | 298 | 0.0 | 0.0 | 0.00 | 0.00 | 0.00 | 58 | 1012.8 |
| 20260502012205 | 15 | 298 | 0.0 | 0.0 | 0.00 | 0.00 | 0.00 | 57 | 1012.7 |
| 20260502011707 | 15 | 298 | 0.0 | 0.0 | 0.00 | 0.00 | 0.00 | 57 | 1012.7 |
| 20260502010705 | 16 | 298 | 0.0 | 0.0 | 0.00 | 0.00 | 0.00 | 55 | 1012.5 |
| 20260502010206 | 16 | 298 | 0.0 | 0.0 | 0.00 | 0.00 | 0.00 | 54 | 1012.4 |
| 20260502005705 | 16 | 298 | 0.0 | 0.0 | 0.00 | 0.00 | 0.00 | 53 | 1012.4 |
| 20260502005206 | 16 | 298 | 0.0 | 0.0 | 0.00 | 0.00 | 0.00 | 52 | 1012.2 |
| 20260502004705 | 16 | 298 | 0.0 | 0.0 | 0.00 | 0.00 | 0.00 | 52 | 1012.2 |
| 20260502003705 | 16 | 298 | 0.0 | 0.0 | 0.00 | 0.00 | 0.00 | 51 | 1012.0 |
| 20260502003207 | 16 | 298 | 0.0 | 0.0 | 0.00 | 0.00 | 0.00 | 51 | 1011.9 |
| 20260502002706 | 17 | 298 | 0.0 | 0.0 | 0.00 | 0.00 | 0.00 | 50 | 1012.0 |
| 20260502002206 | 17 | 298 | 0.0 | 0.0 | 0.00 | 0.00 | 0.00 | 49 | 1012.0 |
| 20260502001206 | 17 | 298 | 0.0 | 0.0 | 0.00 | 0.00 | 0.00 | 48 | 1011.9 |
| 20260502000705 | 17 | 298 | 0.0 | 0.0 | 0.00 | 0.00 | 0.00 | 48 | 1011.9 |
| 20260502000207 | 17 | 298 | 0.0 | 0.0 | 0.00 | 0.00 | 0.00 | 47 | 1012.0 |
| 20260501235706 | 17 | 298 | 0.0 | 0.0 | 0.00 | 0.00 | 0.00 | 47 | 1011.9 |
| 20260501235205 | 17 | 298 | 0.0 | 0.0 | 0.00 | 0.00 | 0.00 | 47 | 1012.0 |
| 20260501234706 | 17 | 298 | 0.0 | 0.0 | 0.00 | 0.00 | 0.00 | 46 | 1011.8 |
| 20260501234206 | 18 | 297 | 0.0 | 0.0 | 0.00 | 0.00 | 0.00 | 45 | 1011.8 |
| 20260501233706 | 18 | 297 | 0.0 | 0.0 | 0.00 | 0.00 | 0.00 | 45 | 1011.9 |
| 20260501233205 | 18 | 297 | 0.0 | 0.0 | 0.00 | 0.00 | 0.00 | 45 | 1011.7 |
| 20260501232707 | 18 | 297 | 0.0 | 0.0 | 0.00 | 0.00 | 0.00 | 45 | 1011.7 |
| 20260501232207 | 18 | 297 | 0.0 | 0.0 | 0.00 | 0.00 | 0.00 | 44 | 1011.6 |
| 20260501231206 | 18 | 297 | 0.0 | 0.0 | 0.00 | 0.00 | 0.00 | 43 | 1011.6 |
| 20260501230705 | 18 | 297 | 0.0 | 0.0 | 0.00 | 0.00 | 0.00 | 43 | 1011.6 |
| 20260501230205 | 18 | 297 | 0.0 | 1.6 | 0.00 | 0.00 | 0.00 | 42 | 1011.6 |
| 20260501225706 | 18 | 297 | 6.4 | 12.9 | 0.00 | 0.00 | 0.00 | 43 | 1011.7 |
| 20260501225207 | 18 | 290 | 0.0 | 4.8 | 0.00 | 0.00 | 0.00 | 42 | 1011.7 |
| 20260501224706 | 19 | 290 | 3.2 | 4.8 | 0.00 | 0.00 | 0.00 | 44 | 1011.8 |
| 20260501224206 | 19 | 290 | 9.7 | 11.3 | 0.00 | 0.00 | 0.00 | 42 | 1011.7 |
| 20260501223705 | 19 | 284 | 0.0 | 0.0 | 0.00 | 0.00 | 0.00 | 43 | 1011.9 |
| 20260501223205 | 19 | 282 | 0.0 | 4.8 | 0.00 | 0.00 | 0.00 | 42 | 1012.0 |
| 20260501222705 | 19 | 292 | 3.2 | 4.8 | 0.00 | 0.00 | 0.00 | 41 | 1012.0 |
| 20260501222205 | 19 | 292 | 6.4 | 8.0 | 0.00 | 0.00 | 0.00 | 39 | 1012.0 |
| 20260501221705 | 19 | 292 | 3.2 | 8.0 | 0.00 | 0.00 | 0.00 | 39 | 1012.0 |
| 20260501221207 | 19 | 290 | 0.0 | 0.0 | 0.00 | 0.00 | 0.00 | 39 | 1011.9 |
| 20260501215706 | 19 | 288 | 0.0 | 0.0 | 0.00 | 0.00 | 0.00 | 40 | 1012.1 |
| 20260501215205 | 19 | 271 | 0.0 | 0.0 | 0.00 | 0.00 | 0.00 | 40 | 1012.0 |
| 20260501214205 | 19 | 264 | 8.0 | 11.3 | 0.00 | 0.00 | 0.00 | 40 | 1012.0 |
| 20260501213705 | 20 | 302 | 4.8 | 11.3 | 0.00 | 0.00 | 0.00 | 43 | 1012.0 |
| 20260501213205 | 20 | 302 | 0.0 | 4.8 | 0.00 | 0.00 | 0.00 | 43 | 1012.0 |
| 20260501212205 | 20 | 299 | 12.9 | 16.1 | 0.00 | 0.00 | 0.00 | 40 | 1012.0 |
| 20260501211706 | 20 | 296 | 1.6 | 11.3 | 0.00 | 0.00 | 0.00 | 41 | 1011.9 |
| 20260501211206 | 19 | 296 | 9.7 | 12.9 | 0.00 | 0.00 | 0.00 | 38 | 1012.0 |
| 20260501210705 | 20 | 40 | 0.0 | 4.8 | 0.00 | 0.00 | 0.00 | 39 | 1011.9 |
| 20260501210205 | 20 | 284 | 6.4 | 12.9 | 0.00 | 0.00 | 0.00 | 43 | 1011.9 |
| 20260501205705 | 20 | 306 | 0.0 | 0.0 | 0.00 | 0.00 | 0.00 | 40 | 1011.9 |
| 20260501205206 | 20 | 66 | 0.0 | 0.0 | 0.00 | 0.00 | 0.00 | 39 | 1011.9 |
| 20260501204705 | 20 | 299 | 1.6 | 8.0 | 0.00 | 0.00 | 0.00 | 41 | 1012.2 |
| 20260501204205 | 20 | 301 | 11.3 | 12.9 | 0.00 | 0.00 | 0.00 | 39 | 1012.1 |
| 20260501203706 | 20 | 292 | 8.0 | 12.9 | 0.00 | 0.00 | 0.00 | 39 | 1012.3 |
| 20260501203205 | 20 | 291 | 8.0 | 11.3 | 0.00 | 0.00 | 0.00 | 39 | 1012.3 |
| 20260501202705 | 20 | 289 | 8.0 | 19.3 | 0.00 | 0.00 | 0.00 | 40 | 1012.3 |
| 20260501202205 | 20 | 9 | 0.0 | 0.0 | 0.00 | 0.00 | 0.00 | 37 | 1012.5 |
| 20260501201206 | 20 | 300 | 14.5 | 19.3 | 0.00 | 0.00 | 0.00 | 39 | 1012.7 |
| 20260501200706 | 20 | 296 | 0.0 | 8.0 | 0.00 | 0.00 | 0.00 | 39 | 1012.7 |
| 20260501200205 | 20 | 296 | 8.0 | 11.3 | 0.00 | 0.00 | 0.00 | 40 | 1012.6 |
| 20260501195705 | 19 | 296 | 0.0 | 0.0 | 0.00 | 0.00 | 0.00 | 38 | 1012.8 |
| 20260501195206 | 19 | 296 | 1.6 | 8.0 | 0.00 | 0.00 | 0.00 | 39 | 1012.9 |
| 20260501194705 | 19 | 296 | 4.8 | 12.9 | 0.00 | 0.00 | 0.00 | 39 | 1013.1 |
| 20260501194205 | 19 | 295 | 4.8 | 19.3 | 0.00 | 0.00 | 0.00 | 38 | 1013.1 |
| 20260501193705 | 19 | 298 | 11.3 | 19.3 | 0.00 | 0.00 | 0.00 | 40 | 1013.1 |
| 20260501193205 | 19 | 296 | 6.4 | 12.9 | 0.00 | 0.00 | 0.00 | 39 | 1013.3 |
| 20260501192705 | 19 | 296 | 8.0 | 12.9 | 0.00 | 0.00 | 0.00 | 41 | 1013.2 |
| 20260501192205 | 18 | 298 | 4.8 | 12.9 | 0.00 | 0.00 | 0.00 | 42 | 1013.5 |
| 20260501191705 | 18 | 297 | 8.0 | 12.9 | 0.00 | 0.00 | 0.00 | 41 | 1013.5 |
| 20260501190705 | 18 | 297 | 11.3 | 12.9 | 0.00 | 0.00 | 0.00 | 42 | 1013.6 |
| 20260501190204 | 18 | 300 | 0.0 | 0.0 | 0.00 | 0.00 | 0.00 | 42 | 1013.6 |
| 20260501185705 | 18 | 81 | 3.2 | 11.3 | 0.00 | 0.00 | 0.00 | 40 | 1013.8 |
| 20260501185205 | 18 | 310 | 0.0 | 0.0 | 0.00 | 0.00 | 0.00 | 40 | 1013.9 |
| 20260501184705 | 18 | 4 | 0.0 | 1.6 | 0.00 | 0.00 | 0.00 | 42 | 1014.0 |
| 20260501184206 | 18 | 298 | 4.8 | 12.9 | 0.00 | 0.00 | 0.00 | 38 | 1014.0 |
| 20260501183705 | 18 | 303 | 3.2 | 8.0 | 0.00 | 0.00 | 0.00 | 40 | 1014.1 |
| 20260501183205 | 18 | 303 | 3.2 | 12.9 | 0.00 | 0.00 | 0.00 | 40 | 1014.3 |
| 20260501182705 | 18 | 59 | 1.6 | 8.0 | 0.00 | 0.00 | 0.00 | 40 | 1014.2 |
| 20260501182204 | 18 | 30 | 1.6 | 12.9 | 0.00 | 0.00 | 0.00 | 41 | 1014.3 |
| 20260501181705 | 18 | 45 | 4.8 | 19.3 | 0.00 | 0.00 | 0.00 | 39 | 1014.4 |
| 20260501181206 | 18 | 305 | 9.7 | 12.9 | 0.00 | 0.00 | 0.00 | 40 | 1014.5 |
| 20260501180705 | 18 | 221 | 0.0 | 0.0 | 0.00 | 0.00 | 0.00 | 41 | 1014.5 |
| 20260501180205 | 18 | 223 | 1.6 | 8.0 | 0.00 | 0.00 | 0.00 | 39 | 1014.6 |
| 20260501175705 | 18 | 291 | 4.8 | 11.3 | 0.00 | 0.00 | 0.00 | 43 | 1014.7 |
| 20260501175204 | 18 | 298 | 4.8 | 12.9 | 0.00 | 0.00 | 0.00 | 41 | 1014.7 |
| 20260501173205 | 18 | 263 | 0.0 | 0.0 | 0.00 | 0.00 | 0.00 | 36 | 1015.0 |
| 20260501171704 | 19 | 330 | 0.0 | 0.0 | 0.00 | 0.00 | 0.00 | 39 | 1015.1 |
| 20260501171204 | 18 | 313 | 0.0 | 0.0 | 0.00 | 0.00 | 0.00 | 40 | 1015.2 |
| 20260501170705 | 18 | 313 | 0.0 | 1.6 | 0.00 | 0.00 | 0.00 | 39 | 1015.2 |
| 20260501170204 | 18 | 313 | 1.6 | 8.0 | 0.00 | 0.00 | 0.00 | 38 | 1015.3 |
| 20260501165704 | 18 | 313 | 8.0 | 8.0 | 0.00 | 0.00 | 0.00 | 37 | 1015.3 |
| 20260501164206 | 17 | 323 | 0.0 | 0.0 | 0.00 | 0.00 | 0.00 | 38 | 1015.4 |
| 20260501163706 | 17 | 323 | 0.0 | 0.0 | 0.00 | 0.00 | 0.00 | 44 | 1015.4 |
| 20260501162705 | 17 | 323 | 0.0 | 0.0 | 0.00 | 0.00 | 0.00 | 44 | 1015.6 |
| 20260501162204 | 17 | 323 | 0.0 | 0.0 | 0.00 | 0.00 | 0.00 | 41 | 1015.7 |
| 20260501161204 | 17 | 323 | 0.0 | 0.0 | 0.00 | 0.00 | 0.00 | 42 | 1015.9 |
| 20260501155705 | 17 | 240 | 0.0 | 0.0 | 0.00 | 0.00 | 0.00 | 42 | 1016.0 |
| 20260501155206 | 17 | 97 | 0.0 | 0.0 | 0.00 | 0.00 | 0.00 | 44 | 1016.1 |